EST,Max TemperatureF,Mean TemperatureF,Min TemperatureF,Max Dew PointF,MeanDew PointF,Min DewpointF,Max Humidity, Mean Humidity, Min Humidity, Max Sea Level PressureIn, Mean Sea Level PressureIn, Min Sea Level PressureIn, Max VisibilityMiles, Mean VisibilityMiles, Min VisibilityMiles, Max Wind SpeedMPH, Mean Wind SpeedMPH, Max Gust SpeedMPH,PrecipitationIn, CloudCover, Events, WindDirDegrees
2013-11-1,66,59,52,61,56,42,93,82,58,29.75,29.57,29.45,10,9,2,26,16,45,0.30,5,Rain,200
2013-11-2,63,49,36,48,40,35,100,89,43,29.77,29.69,29.60,10,5,0,12,1,,0.01,4,Fog-Rain,17
2013-11-3,45,38,30,41,25,14,86,60,32,30.43,30.08,29.78,10,10,10,15,11,26,0.00,5,,347
2013-11-4,42,30,19,20,16,13,92,63,31,30.72,30.63,30.48,10,10,10,12,1,,0.00,0,,15
2013-11-5,48,34,21,32,26,19,92,75,48,30.72,30.63,30.51,10,10,10,12,2,,0.00,0,,183
2013-11-6,57,45,33,47,39,31,96,77,55,30.49,30.30,30.04,10,10,9,16,4,28,0.00,3,,185
2013-11-7,60,50,37,55,45,22,90,80,53,30.01,29.83,29.72,10,10,5,18,11,26,0.13,6,Rain,244
2013-11-8,45,36,26,31,24,19,89,66,45,30.11,29.96,29.85,10,10,10,18,6,26,0.00,3,,282
2013-11-9,42,32,21,31,24,18,88,70,43,30.23,30.14,30.01,10,10,9,14,3,18,0.00,3,,221
2013-11-10,48,42,37,37,33,28,96,68,54,29.97,29.85,29.76,10,10,3,16,6,33,0.02,7,Rain,248
2013-11-11,48,42,37,30,26,23,65,52,36,30.11,30.00,29.90,10,10,10,13,9,23,0.00,5,,238
2013-11-12,45,34,21,31,20,12,85,61,46,30.22,30.07,29.89,10,9,2,16,10,31,0.00,4,Snow,311
2013-11-13,33,24,15,16,11,8,88,59,35,30.32,30.26,30.17,10,10,8,13,6,,0.00,0,,263
2013-11-14,50,36,23,23,19,15,88,56,31,30.15,30.11,30.06,10,10,10,13,6,25,0.00,0,,223
2013-11-15,55,37,19,27,21,15,92,67,20,30.23,30.18,30.12,10,10,8,10,1,,0.00,0,,182
2013-11-16,57,42,28,32,28,24,92,69,30,30.33,30.29,30.21,10,10,7,8,1,,0.00,2,,183
2013-11-17,55,42,28,55,41,26,97,90,83,30.31,30.13,29.81,10,8,3,8,1,,0.03,7,Rain,143
2013-11-18,62,54,45,58,48,28,97,75,39,29.80,29.62,29.52,10,8,2,17,9,39,0.42,5,Rain,212
2013-11-19,42,36,28,26,19,14,59,51,40,30.33,30.01,29.72,10,10,10,22,14,31,0.00,3,,311
2013-11-20,37,28,18,15,13,11,88,57,34,30.64,30.54,30.35,10,10,10,17,8,26,0.00,0,,338
2013-11-21,44,30,15,28,20,12,88,70,38,30.66,30.56,30.39,10,10,7,9,1,,0.00,2,,189
2013-11-22,44,39,34,43,38,29,100,95,82,30.36,30.06,29.83,10,4,0,6,0,,0.11,8,Fog-Rain,155
2013-11-23,46,36,25,42,23,13,85,66,43,29.96,29.86,29.82,10,7,1,25,12,38,0.00,4,Snow,279
2013-11-24,25,21,17,19,8,-4,85,62,29,30.24,29.94,29.83,10,6,1,29,15,48,0.00,4,Snow,296
2013-11-25,30,21,12,12,4,-6,51,43,27,30.39,30.32,30.25,10,10,10,13,8,20,0.00,0,,262
2013-11-26,34,30,26,32,23,11,100,76,45,30.32,30.23,30.00,10,6,2,12,5,,0.15,8,Rain-Snow,205
2013-11-27,48,40,33,49,41,28,100,95,79,29.97,29.49,29.31,10,5,0,14,4,26,2.52,8,Fog-Rain,314
2013-11-28,34,26,16,27,12,5,84,56,38,30.45,30.10,29.56,10,10,9,24,13,34,0.00,2,Snow,269
2013-11-29,30,21,12,15,11,5,92,65,38,30.75,30.59,30.46,10,10,10,12,2,,0.00,2,,331
2013-11-30,30,18,6,19,10,3,88,67,47,30.82,30.67,30.43,10,10,9,10,1,,0.00,2,,186